Location: Newark
(49.4642°N, 2.1122°E)
Time: 12:15:30
(UTC+00:00)

FO-29 - Visible Passes

Search period start: 09 July 2020 00:00
Search period end: 19 July 2020 00:00
Orbit: 801 x 1321 km, 98.6° (Epoch: 08 July)

Date Brightness Start Highest point End Pass type
(mag) Time Alt. Az. Time Alt. Az. Time Alt. Az.
09 Jul 11.2 01:29:44 14° WSW 01:32:58 20° W 01:37:51 10° NW visible
09 Jul 12.1 21:07:44 10° NE 21:09:11 11° NE 21:10:40 10° NNE visible
09 Jul 10.7 22:47:28 15° ESE 22:52:12 39° ENE 22:58:38 10° N visible
10 Jul 10.1 00:33:57 27° SSW 00:37:07 48° W 00:43:51 10° NNW visible
10 Jul 11.6 21:53:30 10° E 21:58:02 20° NE 22:02:55 10° N visible
10 Jul 9.8 23:38:09 27° SSE 23:41:53 79° ENE 23:49:01 10° NNW visible
11 Jul 11.1 01:24:38 16° WSW 01:27:52 22° W 01:33:07 10° NW visible
11 Jul 12.1 21:03:03 10° NE 21:04:19 11° NE 21:05:35 10° NNE visible
11 Jul 10.8 22:42:23 15° ESE 22:47:15 38° ENE 22:53:44 10° N visible
12 Jul 10.1 00:28:52 28° SSW 00:32:05 51° W 00:39:00 10° NNW visible
12 Jul 11.7 21:48:36 10° E 21:53:08 20° NE 21:57:59 10° N visible
12 Jul 9.8 23:33:04 27° SSE 23:36:54 75° ENE 23:44:08 10° NNW visible
13 Jul 11.1 01:19:33 17° SW 01:22:47 24° W 01:28:22 10° NW visible
13 Jul 12.2 20:58:27 10° NE 20:59:27 10° NE 21:00:27 10° NNE visible
13 Jul 10.9 22:37:18 14° ESE 22:42:19 36° ENE 22:48:49 10° N visible
14 Jul 10.0 00:23:47 29° SSW 00:27:03 55° W 00:34:09 10° NNW visible
14 Jul 11.8 02:13:10 10° W 02:14:00 10° WNW 02:14:50 10° WNW visible
14 Jul 11.7 21:43:43 10° E 21:48:14 19° NE 21:53:03 10° N visible
14 Jul 9.9 23:28:00 26° SSE 23:31:56 71° ENE 23:39:14 10° NNW visible
15 Jul 11.0 01:14:30 18° SW 01:17:43 26° W 01:23:36 10° NNW visible
15 Jul 12.3 20:53:59 10° NE 20:54:35 10° NE 20:55:11 10° NNE visible
15 Jul 11.0 22:32:15 14° ESE 22:37:23 35° ENE 22:43:54 10° N visible
16 Jul 10.0 00:18:43 30° SSW 00:22:02 59° W 00:29:18 10° NNW visible
16 Jul 11.7 02:06:44 10° W 02:08:53 11° WNW 02:11:06 10° WNW visible
16 Jul 11.8 21:38:51 10° E 21:43:21 19° NE 21:48:06 10° N visible
16 Jul 10.0 23:22:58 26° SE 23:26:58 68° ENE 23:34:21 10° N visible
17 Jul 10.9 01:09:27 20° SW 01:12:40 29° W 01:18:50 10° NNW visible
17 Jul 11.0 22:27:13 13° ESE 22:32:29 34° ENE 22:39:00 10° N visible
18 Jul 10.0 00:13:41 31° S 00:17:02 63° W 00:24:26 10° NNW visible
18 Jul 11.7 02:00:53 10° WSW 02:03:47 13° WNW 02:06:48 10° NW visible
18 Jul 11.8 21:34:00 10° E 21:38:28 18° NE 21:43:10 10° N visible
18 Jul 10.1 23:17:56 26° SE 23:22:01 64° ENE 23:29:27 10° N visible
